Torna al catalogo

COSMOS 2251 DEB

AttivoLEO
NORAD 34875·DEBRIS·🇷🇺 Russia

Lanciato Jun 16, 1993 da Plesetsk Cosmodrome

Loading…

Prossimi Passaggi (prossime 24 ore)

TLE

AggiornatoSource: Space-Track

Epoca: Sep 13, 2026, 13:17 UTC

1 34875U 93036ACN 26256.55360508  .00000824  00000-0  22100-3 0  9993
2 34875  74.0468   2.9516 0014767  54.5972 318.1207 14.49686164917376

Traccia COSMOS 2251 DEB in tempo reale con AllMySat

Download on the App Store